Regional Weather Roundup
Issued by NWS

Home | Current Version | Previous Version | Text Only | Print | Product List | Glossary On
Versions: 1 2 3 4 5 6 7 8 9 10 11 12 13 14 15 16 17 18 19 20 21 22 23 24 25 26 27
000
ASUS45 KREV 240410
RWRNV
NEVADA REGIONAL WEATHER ROUNDUP
NATIONAL WEATHER SERVICE RENO NV
900 PM PDT SUN APR 23 2017

NOTE: "FAIR" INDICATES FEW OR NO CLOUDS BELOW 12,000 FEET WITH NO
SIGNIFICANT WEATHER AND/OR OBSTRUCTIONS TO VISIBILITY.

NVZ001-003-004-240500-
WESTERN NEVADA

CITY           SKY/WX    TMP DP  RH WIND       PRES   REMARKS
RENO           MOCLDY    52  26  36 NW17      29.94R
CARSON CITY    FAIR      50  25  37 W13       29.94S
MINDEN         FAIR      46  25  42 CALM      29.95R
FALLON         MOCLDY    57  13  17 W17       29.88R
LOVELOCK       MOCLDY    57  20  23 W15       29.86R
HAWTHORNE      CLEAR     61  18  18 N12       29.86R
$$

NVZ002-CAZ072-073-240500-
NORTHERN AND CENTRAL SIERRA

CITY           SKY/WX    TMP DP  RH WIND       PRES   REMARKS
S. LAKE TAHOE  MOCLDY    42  30  62 SW8       30.00R
TRUCKEE        MOCLDY    39  28  65 W5        30.00R
SQUAW VLY 8000   N/A     32  27  80 SW10        N/A
SUSANVILLE     PTCLDY    50  32  50 W7        29.94R
MAMMOTH LAKES  FAIR      44  26  49 CALM      29.99R
BRIDGEPORT       N/A     43  20  39 W5        29.97
$$

NVZ030-031-036-240500-
NORTHERN NEVADA

CITY           SKY/WX    TMP DP  RH WIND       PRES   REMARKS
ELKO           CLOUDY    50  28  42 W3        29.82S
WINNEMUCCA     CLOUDY    56  27  32 W10       29.83R
WENDOVER       CLEAR     54  40  59 NW3       29.81R
$$

NVZ035-037-240500-
CENTRAL NEVADA

CITY           SKY/WX    TMP DP  RH WIND       PRES   REMARKS
ELY            MOCLDY    40  31  70 S10       29.89R
EUREKA           N/A     49  23  36 S5        29.88R
$$

NVZ013-014-240500-
SOUTH CENTRAL NEVADA

CITY           SKY/WX    TMP DP  RH WIND       PRES   REMARKS
TONOPAH        PTCLDY    58  32  37 N10       29.87R
$$

NVZ017-020-022-240500-
SOUTHERN NEVADA

CITY           SKY/WX    TMP DP  RH WIND       PRES   REMARKS
LAS VEGAS      PTCLDY    79  16   9 S12       29.66R
N. LAS VEGAS   MOCLDY    80  15   8 SW15      29.65R
NELLIS AFB     MOCLDY    80  22  11 SE13      29.64R
HENDERSON      PTCLDY    76  22  13 SW20      29.71R
MERCURY        PTCLDY    71  20  14 SW8       29.71R
$$




USA.gov is the U.S. government's official web portal to all federal, state and local government web resources and services.